Dunnsville, VA

9:45 AM EDT on September 28, 2016 (GMT -0400)
Tappahannock

Weather History for KXSA - November, 2012

Change the Weather History Date:

Saturday, November 3, 2012

  Actual Average (KRIC) Record (KRIC)
Temperature  
Mean Temperature - 54 °F  
Max Temperature - 66 °F 83 °F (1974)
Min Temperature - 43 °F 23 °F (1930)
Degree Days  
Heating Degree Days 11  
Month to date heating degree days 32  
Since 1 July heating degree days 265  
Cooling Degree Days 0  
Month to date cooling degree days 0  
Year to date cooling degree days 1543  
Moisture  
Dew Point -    
Average Humidity    
Maximum Humidity    
Minimum Humidity    
Precipitation  
Precipitation 0.00 in 0.11 in 3.33 in (1947)
Month to date precipitation 0.33  
Year to date precipitation 37.43  
Snow  
Snow 0.00 in 0.00 in 0.00 in (2002)
Month to date snowfall 0.0  
Since 1 July snowfall 0.0  
Snow Depth -    
Sea Level Pressure  
Sea Level Pressure 30.02 in    
Wind  
Wind Speed 3 mph (WNW)    
Max Wind Speed 14 mph    
Max Gust Speed 23 mph    
Visibility 10 miles    
Events      
T = Trace of Precipitation, MM = Missing Value Source: NWS Daily Summary

Daily Weather History Graph

Daily Weather History Graph

Search for Another Location

Airport or City:

Trip Planner

Search our weather history database for the weather conditions in past years. The results will help you decide how hot, cold, wet, or windy it might be!

Date:

Astronomy

Nov. 03, 2012 Rise Set
Actual Time 7:35 AM EDT 6:06 PM EDT
Civil Twilight 7:08 AM EDT 6:33 PM EDT
Nautical Twilight 6:37 AM EDT 7:04 PM EDT
Astronomical Twilight 6:06 AM EDT 7:35 PM EDT
Moon 9:46 PM EDT (11/3) 11:36 AM EDT (11/3)
Length of Visible Light 11h 25m
Length of Day
10h 30m
Waning Gibbous, 80% of the Moon is Illuminated
Nov 3
Waning Gibbous
Nov 6
Last Quarter
Nov 13
New
Nov 20
First Quarter
Nov 28
Full

Hourly Weather History & Observations

Time (EDT) Temp. Dew Point Humidity Pressure Visibility Wind Dir Wind Speed Gust Speed Precip Events Conditions
12:15 AM - - N/A% 29.94 in 10.0 mi Calm Calm - N/A   Clear
12:35 AM - - N/A% 29.95 in 10.0 mi Calm Calm - N/A   Clear
12:55 AM - - N/A% 29.95 in 10.0 mi Calm Calm - N/A   Clear
1:15 AM - - N/A% 29.95 in 10.0 mi Calm Calm - N/A   Clear
1:35 AM - - N/A% 29.96 in 10.0 mi Calm Calm - N/A   Clear
1:55 AM - - N/A% 29.96 in 10.0 mi Calm Calm - N/A   Clear
2:15 AM - - N/A% 29.95 in 10.0 mi West 3.5 mph - N/A   Clear
2:35 AM - - N/A% 29.96 in 10.0 mi Calm Calm - N/A   Clear
2:55 AM - - N/A% 29.96 in 10.0 mi Calm Calm - N/A   Clear
3:15 AM - - N/A% 29.96 in 10.0 mi Calm Calm - N/A   Clear
3:35 AM - - N/A% 29.96 in 10.0 mi WNW 3.5 mph - N/A   Clear
3:55 AM - - N/A% 29.96 in 10.0 mi Calm Calm - N/A   Scattered Clouds
4:15 AM - - N/A% 29.96 in 10.0 mi Calm Calm - N/A   Clear
4:35 AM - - N/A% 29.96 in 10.0 mi West 3.5 mph - N/A   Clear
4:55 AM - - N/A% 29.97 in 10.0 mi Calm Calm - N/A   Mostly Cloudy
5:15 AM - - N/A% 29.97 in 10.0 mi Calm Calm - N/A   Overcast
5:35 AM - - N/A% 29.98 in 10.0 mi Calm Calm - N/A   Overcast
5:55 AM - - N/A% 29.99 in 10.0 mi Calm Calm - N/A   Overcast
6:15 AM - - N/A% 29.99 in 10.0 mi WNW 5.8 mph - N/A   Overcast
6:35 AM - - N/A% 30.00 in 10.0 mi WNW 4.6 mph - N/A   Overcast
6:55 AM - - N/A% 30.01 in 10.0 mi WNW 4.6 mph - N/A   Overcast
7:15 AM - - N/A% 30.02 in 10.0 mi NW 3.5 mph - N/A   Overcast
7:35 AM - - N/A% 30.03 in 10.0 mi WNW 3.5 mph - N/A   Overcast
7:55 AM - - N/A% 30.04 in 10.0 mi WNW 4.6 mph - N/A   Overcast
8:15 AM - - N/A% 30.05 in 10.0 mi West 5.8 mph - N/A   Overcast
8:35 AM - - N/A% 30.04 in 10.0 mi West 5.8 mph - N/A   Mostly Cloudy
8:55 AM - - N/A% 30.05 in 10.0 mi West 5.8 mph - N/A   Overcast
9:15 AM - - N/A% 30.05 in - West 6.9 mph - N/A   Unknown
9:35 AM - - N/A% 30.05 in 10.0 mi WNW 6.9 mph - N/A   Scattered Clouds
9:55 AM - - N/A% 30.04 in 10.0 mi West 13.8 mph 21.9 mph N/A   Clear
10:15 AM - - N/A% 30.05 in 10.0 mi WNW 6.9 mph - N/A   Scattered Clouds
10:35 AM - - N/A% 30.04 in 10.0 mi NW 13.8 mph 23.0 mph N/A   Mostly Cloudy
10:55 AM - - N/A% 30.04 in 10.0 mi NW 10.4 mph 18.4 mph N/A   Mostly Cloudy
11:15 AM - - N/A% 30.04 in 10.0 mi WNW 11.5 mph 19.6 mph N/A   Mostly Cloudy
11:35 AM - - N/A% 30.04 in 10.0 mi NW 9.2 mph 20.7 mph N/A   Mostly Cloudy
11:55 AM - - N/A% 30.04 in 10.0 mi NNW 12.7 mph 16.1 mph N/A   Mostly Cloudy
12:15 PM - - N/A% 30.04 in 10.0 mi WNW 11.5 mph 18.4 mph N/A   Mostly Cloudy
12:35 PM - - N/A% 30.03 in 10.0 mi WNW 10.4 mph 17.3 mph N/A   Mostly Cloudy
12:55 PM - - N/A% 30.03 in 10.0 mi WNW 10.4 mph 18.4 mph N/A   Mostly Cloudy
1:15 PM - - N/A% 30.03 in 10.0 mi West 12.7 mph 19.6 mph N/A   Overcast
1:35 PM - - N/A% 30.02 in 10.0 mi WNW 8.1 mph - N/A   Overcast
1:55 PM - - N/A% 30.02 in 10.0 mi WNW 9.2 mph 17.3 mph N/A   Overcast
2:15 PM - - N/A% 30.01 in 10.0 mi WNW 8.1 mph - N/A   Scattered Clouds
2:35 PM - - N/A% 30.00 in 10.0 mi WNW 10.4 mph 17.3 mph N/A   Clear
2:55 PM - - N/A% 30.01 in 10.0 mi WNW 5.8 mph 16.1 mph N/A   Scattered Clouds
3:15 PM - - N/A% 30.01 in 10.0 mi NW 10.4 mph 18.4 mph N/A   Scattered Clouds
3:35 PM - - N/A% 30.01 in 10.0 mi NW 5.8 mph - N/A   Scattered Clouds
3:55 PM - - N/A% 30.01 in 10.0 mi West 11.5 mph - N/A   Clear
4:15 PM - - N/A% 30.02 in 10.0 mi WNW 6.9 mph 16.1 mph N/A   Scattered Clouds
4:35 PM - - N/A% 30.02 in 10.0 mi NW 8.1 mph - N/A   Clear
4:55 PM - - N/A% 30.02 in 10.0 mi NNW 8.1 mph - N/A   Clear
5:15 PM - - N/A% 30.03 in 10.0 mi NNW 6.9 mph - N/A   Scattered Clouds
5:35 PM - - N/A% 30.03 in 10.0 mi NNW 5.8 mph - N/A   Scattered Clouds
5:55 PM - - N/A% 30.04 in 10.0 mi NNW 5.8 mph - N/A   Scattered Clouds
6:15 PM - - N/A% 30.04 in 10.0 mi NW 6.9 mph - N/A   Clear
6:35 PM - - N/A% 30.04 in 10.0 mi NNW 4.6 mph - N/A   Clear
6:55 PM - - N/A% 30.05 in 10.0 mi Calm Calm - N/A   Clear
7:15 PM - - N/A% 30.06 in 10.0 mi NW 4.6 mph - N/A   Clear
7:35 PM - - N/A% 30.07 in 10.0 mi Calm Calm - N/A   Clear
7:55 PM - - N/A% 30.07 in 10.0 mi Calm Calm - N/A   Clear
8:15 PM - - N/A% 30.08 in 10.0 mi Calm Calm - N/A   Clear
8:35 PM - - N/A% 30.08 in 10.0 mi Calm Calm - N/A   Clear
8:55 PM - - N/A% 30.08 in 10.0 mi Calm Calm - N/A   Clear
9:15 PM - - N/A% 30.08 in 10.0 mi Calm Calm - N/A   Clear
9:35 PM - - N/A% 30.09 in 10.0 mi Calm Calm - N/A   Clear
9:55 PM - - N/A% 30.08 in 10.0 mi Calm Calm - N/A   Clear
10:15 PM - - N/A% 30.08 in 10.0 mi Calm Calm - N/A   Clear
10:35 PM - - N/A% 30.08 in 10.0 mi SW 3.5 mph - N/A   Clear
10:55 PM - - N/A% 30.09 in 10.0 mi Calm Calm - N/A   Clear
11:15 PM - - N/A% 30.09 in 10.0 mi Calm Calm - N/A   Clear
11:35 PM - - N/A% 30.10 in 10.0 mi Calm Calm - N/A   Scattered Clouds
11:55 PM - - N/A% 30.10 in 10.0 mi Calm Calm - N/A   Scattered Clouds